| time (UTC) | temp F | wind direction | speed knots | gust knots | rain 1hr in | rain 24hr in | rain mn in | humidity % | barometer mb |
| 20260508034529 | 52 | 265 | 2.6 | 7.0 | 0.00 | 0.04 | 0.04 | 84 | 1009.4 |
| 20260508033028 | 53 | 275 | 2.6 | 5.2 | 0.00 | 0.04 | 0.04 | 83 | 1009.3 |
| 20260508031530 | 53 | 248 | 0.0 | 0.0 | 0.00 | 0.04 | 0.04 | 82 | 1009.3 |
| 20260508030028 | 53 | 184 | 0.0 | 0.0 | 0.00 | 0.04 | 0.04 | 81 | 1009.2 |
| 20260508024529 | 54 | 165 | 2.6 | 3.5 | 0.00 | 0.04 | 0.04 | 81 | 1009.2 |
| 20260508023035 | 54 | 190 | 1.7 | 4.3 | 0.00 | 0.04 | 0.04 | 80 | 1009.3 |
| 20260508021528 | 54 | 247 | 1.7 | 4.3 | 0.00 | 0.04 | 0.04 | 79 | 1009.3 |
| 20260508020028 | 54 | 252 | 2.6 | 7.0 | 0.00 | 0.04 | 0.04 | 79 | 1009.2 |
| 20260508014533 | 55 | 236 | 3.5 | 7.0 | 0.00 | 0.04 | 0.04 | 77 | 1008.8 |
| 20260508013031 | 55 | 211 | 0.9 | 5.2 | 0.00 | 0.04 | 0.04 | 76 | 1008.7 |
| 20260508011544 | 55 | 169 | 2.6 | 6.1 | 0.00 | 0.04 | 0.04 | 75 | 1008.5 |
| 20260508010033 | 55 | 243 | 2.6 | 4.3 | 0.00 | 0.04 | 0.04 | 74 | 1008.5 |
| 20260508004535 | 55 | 230 | 1.7 | 5.2 | 0.00 | 0.04 | 0.04 | 74 | 1008.4 |
| 20260508003036 | 56 | 246 | 3.5 | 4.3 | 0.00 | 0.04 | 0.04 | 72 | 1008.2 |
| 20260508001533 | 56 | 237 | 2.6 | 5.2 | 0.00 | 0.04 | 0.04 | 72 | 1008.3 |
| 20260508000034 | 57 | 227 | 2.6 | 6.1 | 0.00 | 0.04 | 0.04 | 72 | 1008.1 |
| 20260507234530 | 57 | 147 | 4.3 | 7.0 | 0.00 | 0.04 | 0.04 | 71 | 1008.0 |
| 20260507233028 | 57 | 215 | 4.3 | 8.7 | 0.00 | 0.04 | 0.04 | 71 | 1007.7 |
| 20260507231529 | 58 | 202 | 6.1 | 8.7 | 0.00 | 0.04 | 0.04 | 70 | 1007.3 |
| 20260507230029 | 59 | 234 | 5.2 | 11.3 | 0.00 | 0.04 | 0.04 | 69 | 1007.3 |
| 20260507224528 | 59 | 189 | 2.6 | 8.7 | 0.00 | 0.04 | 0.04 | 70 | 1007.4 |
| 20260507223028 | 59 | 141 | 5.2 | 10.4 | 0.00 | 0.04 | 0.04 | 68 | 1007.3 |
| 20260507221530 | 60 | 173 | 5.2 | 9.6 | 0.00 | 0.04 | 0.04 | 68 | 1007.4 |
| 20260507220031 | 59 | 190 | 5.2 | 10.4 | 0.00 | 0.04 | 0.04 | 68 | 1007.2 |
| 20260507214531 | 59 | 139 | 3.5 | 8.7 | 0.00 | 0.04 | 0.04 | 68 | 1007.2 |
| 20260507213033 | 58 | 188 | 3.5 | 7.8 | 0.00 | 0.04 | 0.04 | 68 | 1007.2 |
| 20260507211528 | 58 | 150 | 5.2 | 11.3 | 0.00 | 0.04 | 0.04 | 67 | 1007.4 |
| 20260507210031 | 58 | 170 | 4.3 | 9.6 | 0.00 | 0.04 | 0.04 | 67 | 1007.3 |
| 20260507204529 | 57 | 209 | 4.3 | 10.4 | 0.00 | 0.04 | 0.04 | 67 | 1007.3 |
| 20260507203030 | 58 | 162 | 6.1 | 11.3 | 0.00 | 0.04 | 0.04 | 63 | 1007.4 |
| 20260507201531 | 57 | 103 | 5.2 | 11.3 | 0.00 | 0.04 | 0.04 | 66 | 1007.5 |
| 20260507200037 | 57 | 146 | 5.2 | 7.8 | 0.00 | 0.04 | 0.04 | 65 | 1007.4 |
| 20260507194533 | 57 | 165 | 3.5 | 8.7 | 0.00 | 0.04 | 0.04 | 64 | 1007.6 |
| 20260507193033 | 57 | 212 | 4.3 | 7.8 | 0.00 | 0.04 | 0.04 | 66 | 1007.9 |
| 20260507191531 | 56 | 162 | 6.1 | 8.7 | 0.01 | 0.04 | 0.04 | 65 | 1007.6 |
| 20260507190037 | 57 | 141 | 6.1 | 10.4 | 0.01 | 0.04 | 0.04 | 69 | 1007.9 |
| 20260507184538 | 56 | 142 | 1.7 | 6.1 | 0.01 | 0.04 | 0.04 | 66 | 1008.1 |
| 20260507183030 | 56 | 101 | 0.9 | 5.2 | 0.01 | 0.04 | 0.04 | 60 | 1008.6 |
| 20260507181532 | 57 | 54 | 0.9 | 8.7 | 0.00 | 0.03 | 0.03 | 58 | 1008.9 |
| 20260507180034 | 57 | 76 | 2.6 | 7.8 | 0.00 | 0.03 | 0.03 | 54 | 1008.5 |
| 20260507174538 | 57 | 98 | 4.3 | 9.6 | 0.00 | 0.03 | 0.03 | 53 | 1009.0 |
| 20260507173035 | 57 | 75 | 3.5 | 8.7 | 0.00 | 0.03 | 0.03 | 56 | 1008.8 |
| 20260507171533 | 56 | 43 | 3.5 | 5.2 | 0.00 | 0.03 | 0.03 | 63 | 1009.0 |
| 20260507170034 | 56 | 348 | 3.5 | 7.8 | 0.00 | 0.03 | 0.03 | 60 | 1009.3 |
| 20260507164530 | 56 | 71 | 2.6 | 5.2 | 0.00 | 0.03 | 0.03 | 61 | 1009.3 |
| 20260507163033 | 55 | 17 | 2.6 | 6.1 | 0.00 | 0.03 | 0.03 | 62 | 1010.0 |
| 20260507161530 | 56 | 319 | 0.0 | 6.1 | 0.00 | 0.03 | 0.03 | 66 | 1009.7 |
| 20260507160037 | 56 | 24 | 3.5 | 7.8 | 0.00 | 0.03 | 0.03 | 64 | 1009.4 |
| 20260507154537 | 56 | 58 | 2.6 | 7.8 | 0.00 | 0.03 | 0.03 | 63 | 1010.0 |
| 20260507153033 | 56 | 14 | 4.3 | 10.4 | 0.00 | 0.03 | 0.03 | 62 | 1009.6 |
| 20260507151531 | 56 | 36 | 4.3 | 9.6 | 0.00 | 0.03 | 0.03 | 64 | 1009.8 |
| 20260507150032 | 56 | 316 | 3.5 | 9.6 | 0.00 | 0.03 | 0.03 | 67 | 1009.7 |
| 20260507144531 | 56 | 26 | 4.3 | 10.4 | 0.00 | 0.11 | 0.03 | 69 | 1010.1 |
| 20260507143029 | 56 | 355 | 3.5 | 9.6 | 0.00 | 0.11 | 0.03 | 70 | 1010.5 |
| 20260507141530 | 56 | 37 | 2.6 | 7.8 | 0.00 | 0.11 | 0.03 | 72 | 1010.6 |
| 20260507140052 | 56 | 28 | 3.5 | 12.2 | 0.00 | 0.11 | 0.03 | 72 | 1010.5 |
| 20260507134533 | 56 | 323 | 3.5 | 10.4 | 0.00 | 0.12 | 0.03 | 72 | 1010.3 |
| 20260507133032 | 56 | 57 | 5.2 | 10.4 | 0.00 | 0.12 | 0.03 | 71 | 1010.2 |
| 20260507131536 | 56 | 31 | 4.3 | 11.3 | 0.00 | 0.12 | 0.03 | 71 | 1010.2 |
| 20260507130031 | 56 | 11 | 4.3 | 12.2 | 0.00 | 0.12 | 0.03 | 74 | 1010.3 |
| 20260507124530 | 56 | 46 | 6.1 | 9.6 | 0.00 | 0.12 | 0.03 | 76 | 1010.4 |
| 20260507123038 | 56 | 22 | 5.2 | 12.2 | 0.00 | 0.12 | 0.03 | 76 | 1010.1 |
| 20260507121540 | 56 | 59 | 2.6 | 11.3 | 0.00 | 0.12 | 0.03 | 79 | 1009.9 |
| 20260507120032 | 55 | 80 | 5.2 | 9.6 | 0.00 | 0.12 | 0.03 | 81 | 1009.6 |
| 20260507114533 | 55 | 59 | 4.3 | 9.6 | 0.00 | 0.12 | 0.03 | 82 | 1009.8 |
| 20260507113038 | 55 | 88 | 1.7 | 9.6 | 0.00 | 0.12 | 0.03 | 83 | 1009.6 |
| 20260507111532 | 55 | 360 | 3.5 | 6.1 | 0.00 | 0.12 | 0.03 | 83 | 1009.5 |
| 20260507110038 | 55 | 346 | 3.5 | 8.7 | 0.00 | 0.12 | 0.03 | 84 | 1009.7 |
| 20260507104536 | 55 | 311 | 3.5 | 7.8 | 0.00 | 0.12 | 0.03 | 84 | 1009.4 |
| 20260507103032 | 55 | 46 | 2.6 | 5.2 | 0.00 | 0.12 | 0.03 | 84 | 1009.1 |
| 20260507101539 | 55 | 49 | 2.6 | 7.8 | 0.00 | 0.12 | 0.03 | 83 | 1009.1 |
| 20260507100037 | 55 | 55 | 3.5 | 5.2 | 0.00 | 0.12 | 0.03 | 83 | 1009.1 |
| 20260507094533 | 55 | 333 | 2.6 | 7.8 | 0.00 | 0.12 | 0.03 | 84 | 1009.1 |
| 20260507093041 | 55 | 32 | 3.5 | 7.0 | 0.00 | 0.12 | 0.03 | 85 | 1009.0 |
| 20260507091533 | 55 | 337 | 2.6 | 6.1 | 0.00 | 0.12 | 0.03 | 86 | 1009.2 |
| 20260507090034 | 55 | 346 | 3.5 | 9.6 | 0.00 | 0.12 | 0.03 | 86 | 1008.8 |
| 20260507084536 | 56 | 66 | 4.3 | 8.7 | 0.00 | 0.12 | 0.03 | 88 | 1008.7 |
| 20260507083038 | 56 | 64 | 4.3 | 7.8 | 0.00 | 0.12 | 0.03 | 89 | 1008.8 |
| 20260507081534 | 56 | 115 | 1.7 | 4.3 | 0.00 | 0.12 | 0.03 | 90 | 1009.1 |
| 20260507080047 | 56 | 355 | 3.5 | 8.7 | 0.00 | 0.12 | 0.03 | 89 | 1008.7 |
| 20260507074535 | 56 | 44 | 2.6 | 6.1 | 0.00 | 0.12 | 0.03 | 89 | 1008.3 |
| 20260507073035 | 57 | 48 | 1.7 | 7.0 | 0.00 | 0.12 | 0.03 | 89 | 1008.0 |
| 20260507071557 | 57 | 55 | 2.6 | 7.8 | 0.00 | 0.12 | 0.03 | 88 | 1008.1 |
| 20260507070040 | 57 | 332 | 3.5 | 8.7 | 0.00 | 0.12 | 0.03 | 88 | 1008.3 |
| 20260507064540 | 57 | 348 | 3.5 | 12.2 | 0.00 | 0.12 | 0.03 | 88 | 1008.0 |
| 20260507063041 | 57 | 28 | 5.2 | 16.5 | 0.01 | 0.12 | 0.03 | 89 | 1008.2 |
| 20260507061530 | 58 | 334 | 6.1 | 13.0 | 0.02 | 0.12 | 0.03 | 90 | 1008.2 |
| 20260507060028 | 58 | 21 | 4.3 | 9.6 | 0.02 | 0.12 | 0.03 | 90 | 1007.3 |
| 20260507054528 | 59 | 57 | 3.5 | 9.6 | 0.02 | 0.12 | 0.03 | 90 | 1006.6 |
| 20260507053029 | 59 | 44 | 5.2 | 15.6 | 0.02 | 0.11 | 0.02 | 89 | 1007.3 |
| 20260507051528 | 61 | 324 | 5.2 | 12.2 | 0.01 | 0.09 | 0.01 | 88 | 1008.1 |
| 20260507050029 | 62 | 355 | 4.3 | 9.6 | 0.01 | 0.09 | 0.01 | 87 | 1008.2 |
| 20260507044526 | 64 | 9 | 4.3 | 8.7 | 0.01 | 0.09 | 0.01 | 86 | 1007.7 |
| 20260507043034 | 66 | 319 | 5.2 | 13.0 | 0.00 | 0.09 | 0.00 | 86 | 1008.0 |
| 20260507041529 | 67 | 352 | 1.7 | 5.2 | 0.00 | 0.09 | 0.00 | 85 | 1007.4 |
| 20260507040027 | 67 | 288 | 0.9 | 4.3 | 0.00 | 0.09 | 0.00 | 84 | 1007.6 |